Regional Weather Roundup
Issued by NWS

Home | Current Version | Previous Version | Graphics & Text | Print | Product List | Glossary On
Versions: 1 2 3 4 5 6 7 8 9 10 11 12 13 14 15 16 17 18 19 20 21 22 23 24 25 26 27 28 29 30 31 32 33 34 35 36 37 38 39 40 41 42 43 44 45 46 47 48 49 50
000
ASUS43 KOAX 191410
RWRNE

WEATHER ROUNDUP FOR NEBRASKA
NATIONAL WEATHER SERVICE OMAHA NE
900 AM CDT FRI SEP 19 2014

NOTES: SATELLITE DATA IS BEING USED TO AUGMENT CLOUD COVER ABOVE
       12000 FEET.
       "FAIR" INDICATES FEW OR NO CLOUDS BELOW 12,000 FEET WITH NO
       SIGNIFICANT WEATHER AND/OR OBSTRUCTIONS TO VISIBILITY.

  * THESE STATIONS DO NOT REPORT WEATHER SUCH AS RAIN...SNOW OR FOG.

NEZ001>004-019>022-054>056-191500-
NEBRASKA PANHANDLE

CITY           SKY/WX    TMP DP  RH WIND       PRES   REMARKS
SCOTTSBLUFF    MOSUNNY   61  53  75 W13       29.94R
ALLIANCE       SUNNY     57  53  86 W10       29.89R
CHADRON        MOSUNNY   61  54  77 SW6       29.86R
KIMBALL        MOSUNNY   61  48  62 NW7       29.97R
SIDNEY         MOSUNNY   67  44  43 W14       29.95R
$$

NEZ057>060-069>072-079>082-191500-
SOUTHWEST NEBRASKA

CITY           SKY/WX    TMP DP  RH WIND       PRES   REMARKS
NORTH PLATTE   SUNNY     63  59  87 S3        29.86F
IMPERIAL       SUNNY     62  56  80 SW10      29.90R
LEXINGTON      SUNNY     66  63  91 S9        29.88S
MCCOOK         SUNNY     61  60  97 CALM      29.91R
OGALLALA       SUNNY     56  56  99 W3        29.89R
$$

NEZ005>010-023>029-035>040-094-191500-
NORTH CENTRAL NEBRASKA

CITY           SKY/WX    TMP DP  RH WIND       PRES   REMARKS
VALENTINE      SUNNY     63  60  90 SW10      29.78S
AINSWORTH      SUNNY     64  61  90 SW13      29.80S
BROKEN BOW     SUNNY     65  61  87 S13       29.85S
O`NEILL        SUNNY     68  64  88 SW13      29.81R
ORD            SUNNY     65  61  87 S13       29.83S
THEDFORD       MOSUNNY   62  60  94 W6        29.87S
$$

NEZ041-046>049-061>064-073>077-083>087-191500-
SOUTH CENTRAL NEBRASKA

CITY           SKY/WX    TMP DP  RH WIND       PRES   REMARKS
GRAND ISLAND   SUNNY     67  62  84 S15       29.89F
AURORA         MOSUNNY   66  64  93 S14G20    29.90F
HASTINGS       SUNNY     65  60  84 S10       29.91S
HEBRON         PTSUNNY   67  62  86 S10       29.95R
HOLDREGE       SUNNY     64  60  88 S12G17    29.91S
KEARNEY *      SUNNY     64  61  88 S15       29.90S
YORK           CLOUDY    66  64  94 S15       29.91F
$$

NEZ011>018-030>034-042>045-191500-
NORTHEAST NEBRASKA

CITY           SKY/WX    TMP DP  RH WIND       PRES   REMARKS
NORFOLK        CLOUDY    67  63  87 S15       29.85S
ALBION         PTSUNNY   64  61  90 S12       29.86S
BLAIR          CLOUDY    66  62  86 S20G25    29.91S
COLUMBUS *     CLOUDY    66  63  88 SW16      29.89S
FREMONT        CLOUDY    66  62  89 S14G20    29.90F
TEKAMAH        PTSUNNY   67  62  84 S15G25    29.89F
WAYNE          CLOUDY    67  63  86 S16       29.85S
$$

NEZ050>053-065>068-078-088>093-191500-
SOUTHEAST NEBRASKA

CITY           SKY/WX    TMP DP  RH WIND       PRES   REMARKS
LINCOLN        CLOUDY    67  63  87 S16       29.93F
OMAHA EPPLEY   CLOUDY    64  60  87 S18       29.93S FOG
BEATRICE       MOSUNNY   66  63  90 S14       29.95S
FALLS CITY     CLOUDY    64  62  93 SE12      29.99R
NEBRASKA CITY  CLOUDY    64  63  97 S12G17    29.96F FOG
PLATTSMOUTH    CLOUDY    63  61  92 S15G22    29.94F FOG
$$

NEZ044-045-051>053-067-191500-
OMAHA AREA

CITY           SKY/WX    TMP DP  RH WIND       PRES   REMARKS
OMAHA EPPLEY   CLOUDY    64  60  87 S18       29.93S FOG
BLAIR          CLOUDY    66  62  86 S20G25    29.91S
FREMONT        CLOUDY    66  62  89 S14G20    29.90F
MILLARD        CLOUDY    65  62  89 S12       29.93S FOG
OFFUTT AFB     CLOUDY    64  64 100 SE10      29.94S
PLATTSMOUTH    CLOUDY    63  61  92 S15G22    29.94F FOG
WAHOO          CLOUDY    65  61  86 S12G17    29.92S
$$



USA.gov is the U.S. government's official web portal to all federal, state and local government web resources and services.